Weather History for Rome, GA

Change the Weather History Date:

Wednesday, February 13, 2013

  Actual Average Record
Temperature  
Mean Temperature 42 °F 44 °F  
Max Temperature 48 °F 55 °F 64 °F (2009)
Min Temperature 37 °F 32 °F 19 °F (2012)
Degree Days  
Heating Degree Days 22 21  
Month to date heating degree days 289  
Since 1 July heating degree days 2331  
Moisture  
Dew Point 42 °F    
Average Humidity 88    
Maximum Humidity 100    
Minimum Humidity 70    
Precipitation  
Precipitation 0.04 in 0.16 in 0.30 in (2007)
Month to date precipitation 2.09  
Year to date precipitation 6.91  
Snow  
Snow 0.00 in - - ()
Month to date snowfall  
Since 1 July snowfall  
Snow Depth -    
Sea Level Pressure  
Sea Level Pressure 29.83 in    
Wind  
Wind Speed 4 mph (WSW)    
Max Wind Speed 15 mph    
Max Gust Speed 21 mph    
Visibility 7 miles    
Events Rain    
T = Trace of Precipitation, MM = Missing Value Source: NWS Daily Summary

Daily Weather History Graph

Daily Weather History Graph

Search for Another Location

Airport:

Trip Planner

Search our weather history database for the weather conditions in past years. The results will help you decide how hot, cold, wet, or windy it might be!

Date:

Astronomy

Feb. 13, 2013 Rise Set
Actual Time 7:27 AM EST 6:22 PM EST
Civil Twilight 7:01 AM EST 6:48 PM EST
Nautical Twilight 6:32 AM EST 7:17 PM EST
Astronomical Twilight 6:03 AM EST 7:47 PM EST
Moon 9:08 AM EST (2/13) 10:11 PM EST (2/13)
Length of Visible Light 11h 46m
Length of Day
10h 55m
Waxing Crescent, 13% of the Moon is Illuminated
Feb 13
Waxing Crescent
Feb 17
First Quarter
Feb 25
Full
Mar 4
Last Quarter
Mar 11
New

Hourly Weather History & Observations

Time (EST) Temp. Windchill Dew Point Humidity Pressure Visibility Wind Dir Wind Speed Gust Speed Precip Events Conditions
12:53 AM 45.0 °F - 44.1 °F 97% 29.81 in 10.0 mi Calm Calm - N/A   Overcast
1:53 AM 46.0 °F 43.1 °F 43.0 °F 89% 29.79 in 10.0 mi ESE 5.8 mph - 0.00 in   Overcast
2:53 AM 45.0 °F - 44.1 °F 97% 29.79 in 4.0 mi Calm Calm - 0.02 in Rain Light Rain
3:53 AM 45.0 °F 41.2 °F 44.1 °F 97% 29.75 in 5.0 mi SE 6.9 mph - 0.01 in   Overcast
4:53 AM 45.0 °F 41.8 °F 44.1 °F 97% 29.73 in 4.0 mi South 5.8 mph - 0.01 in   Overcast
5:53 AM 45.0 °F 40.6 °F 44.1 °F 97% 29.74 in 4.0 mi South 8.1 mph - N/A   Overcast
6:11 AM 44.6 °F 40.7 °F 44.6 °F 100% 29.75 in 2.5 mi South 6.9 mph - 0.01 in   Overcast
6:20 AM 44.6 °F 40.7 °F 44.6 °F 100% 29.74 in 3.0 mi South 6.9 mph - 0.01 in   Overcast
6:53 AM 45.0 °F 40.6 °F 45.0 °F 100% 29.72 in 5.0 mi South 8.1 mph - 0.01 in   Overcast
7:53 AM 45.0 °F 41.8 °F 45.0 °F 100% 29.74 in 3.0 mi South 5.8 mph - 0.01 in   Overcast
8:05 AM 44.6 °F 41.4 °F 44.6 °F 100% 29.74 in 2.5 mi South 5.8 mph - N/A   Overcast
8:27 AM 46.4 °F 45.2 °F 46.4 °F 100% 29.77 in 1.5 mi SSW 3.5 mph - 0.00 in Rain Light Rain
8:48 AM 46.4 °F - 46.4 °F 100% 29.76 in 2.0 mi Calm Calm - 0.01 in   Overcast
8:53 AM 46.4 °F 45.2 °F 46.4 °F 100% 29.77 in 2.0 mi South 3.5 mph - N/A   Overcast
9:05 AM 46.4 °F - 46.4 °F 100% 29.77 in 3.0 mi Calm Calm - N/A   Overcast
9:15 AM 46.4 °F - 46.4 °F 100% 29.77 in 2.0 mi Calm Calm - 0.01 in   Overcast
9:45 AM 46.4 °F 44.3 °F 46.4 °F 100% 29.77 in 4.0 mi SW 4.6 mph - 0.01 in   Overcast
9:53 AM 48.0 °F - 46.9 °F 96% 29.77 in 6.0 mi SW 4.6 mph - 0.01 in   Overcast
10:08 AM 48.2 °F - 46.4 °F 93% 29.78 in 10.0 mi Variable 5.8 mph - N/A   Overcast
10:53 AM 48.9 °F - 46.0 °F 90% 29.79 in 10.0 mi West 8.1 mph - N/A   Overcast
11:53 AM 48.9 °F - 43.0 °F 80% 29.79 in 10.0 mi West 6.9 mph 17.3 mph N/A   Overcast
12:53 PM 48.0 °F - 43.0 °F 83% 29.81 in 10.0 mi WSW 8.1 mph 18.4 mph N/A   Overcast
1:53 PM 46.9 °F - 41.0 °F 80% 29.81 in 10.0 mi West 8.1 mph - N/A   Overcast
2:53 PM 46.9 °F - 39.9 °F 77% 29.81 in 10.0 mi West 8.1 mph - N/A   Overcast
3:33 PM 46.4 °F 42.4 °F 41.0 °F 81% 29.83 in 10.0 mi West 8.1 mph - N/A   Overcast
3:53 PM 46.9 °F - 39.9 °F 77% 29.82 in 10.0 mi West 9.2 mph - N/A   Overcast
4:13 PM 46.4 °F 42.4 °F 39.2 °F 76% 29.84 in 10.0 mi West 8.1 mph - N/A   Overcast
4:49 PM 46.4 °F 40.4 °F 39.2 °F 76% 29.87 in 10.0 mi NW 13.8 mph 19.6 mph N/A   Overcast
4:53 PM 46.9 °F - 37.9 °F 71% 29.86 in 10.0 mi NW 15.0 mph 20.7 mph N/A   Overcast
5:53 PM 45.0 °F 41.2 °F 36.0 °F 71% 29.90 in 10.0 mi WNW 6.9 mph - N/A   Mostly Cloudy
6:34 PM 44.6 °F 41.4 °F 35.6 °F 71% 29.93 in 10.0 mi WNW 5.8 mph - N/A   Overcast
6:53 PM 44.1 °F 40.8 °F 36.0 °F 73% 29.94 in 10.0 mi NW 5.8 mph - N/A   Overcast
7:53 PM 43.0 °F 38.8 °F 35.1 °F 74% 29.96 in 10.0 mi NNW 6.9 mph - N/A   Overcast
8:02 PM 42.8 °F 38.6 °F 33.8 °F 70% 29.96 in 10.0 mi North 6.9 mph - N/A   Overcast
8:53 PM 39.0 °F - 35.1 °F 86% 29.96 in 10.0 mi Calm Calm - N/A   Mostly Cloudy
9:53 PM 37.9 °F - 36.0 °F 93% 29.98 in 10.0 mi Calm Calm - N/A   Overcast
10:53 PM 39.9 °F - 36.0 °F 86% 30.00 in 10.0 mi Calm Calm - N/A   Overcast
11:25 PM 41.0 °F 38.0 °F 35.6 °F 81% 30.01 in 10.0 mi West 4.6 mph - N/A   Overcast
11:53 PM 41.0 °F - 35.1 °F 79% 30.01 in 10.0 mi Calm Calm - N/A   Overcast